User: anonymous   Login
Location: Lake Runnemede Observatory
(43.4843°N, 72.3851°W)
Time: 16:56:50
(UTC-04:00)
Language:

SPOT 5 - Orbit

View from above orbital plane
View from above orbital plane
View from above satellite
View from above satellite

Ground track
Ground track

The orbit data is extracted from the following two-line orbital elements,

1 27421U 02021A   17112.87342923 -.00000057 +00000-0 -12327-5 0  9995
2 27421 098.4101 176.0971 0136371 137.5377 223.6416 14.51853593777645
Epoch (UTC): 22 April 2017 20:57:44
Eccentricity: 0.0136371
inclination: 98.4101°
perigee height: 623 km
apogee height: 816 km
right ascension of ascending node: 176.0971°
argument of perigee: 137.5377°
revolutions per day: 14.51853593
mean anomaly at epoch: 223.6416°
orbit number at epoch: 77764

The dashed part of the orbit path shows where the satellite is in the earth's shadow,  

DLR